Location: Prague
(50.0830°N, 14.4670°E)
Time: 22:07:33
(UTC+01:00)

HuskySat-1 - Pass Details

Date: 30 November 2021
Orbit: 439 x 453 km, 51.6° (Epoch: 25 January)

Event Time Altitude Azimuth Distance (km) Brightness Sun altitude
Rises 17:24:23 0° 171° (S) 2,461 ? -12.4°
Enters shadow 17:28:07 - 129° (SE) 1,896 ? -13.0°
Exits shadow 18:02:56 -64° 37° (NE) 11,937 ? -18.4°
Reaches altitude 10° 19:01:30 10° 210° (SSW) 1,589 ? -27.7°
